Location: Navarre
(52.9016°N, 113.4144°W)
Time: 08:10:26
(UTC+00:00)

Envisat - Pass Details

Date: 08 December 2021
Orbit: 764 x 766 km, 98.2° (Epoch: 17 January)

Event Time Altitude Azimuth Distance (km) Brightness Sun altitude
Rises 01:00:13 0° 212° (SSW) 3,224 7.1 -14.3°
Reaches altitude 10° 01:03:18 10° 232° (SW) 2,304 6.6 -14.7°
Maximum altitude 01:06:37 17° 273° (W) 1,849 6.0 -15.2°
Drops below altitude 10° 01:09:58 10° 314° (NW) 2,315 5.9 -15.7°
Sets 01:13:05 0° 334° (NNW) 3,247 6.4 -16.1°
